[[{"header":{"parameterUnit":"m.s-1","parameterCategory":1,"la1":30.2991,"la2":30.254,"lo1":-89.0895,"lo2":-89.0444,"dy":0.0017,"dx":0.0017,"nx":28,"ny":28,"refTime":"2025-08-16T09:00:00:Z","depth":0,"parameterNumber":2,"parameterNumberName":"U-component_of_WINDS"},"data":[0,0,0,0,0,0,0,0,0,0,0,0,0,0,0,0,0,0,0,0,0,0,0,0,0,0,0,0,0,0,0,0,0,0,0,0,0,0,0,0,0,0,0,0,0,0,0,0,0,0,0,0,0,0,0,0,0,0,0.0074,0.0074,0,0.0094,0.0095,0.0095,0.0045,0.0044,0.0042,0.0041,0.0066,0.0068,0.007,0,0,0,0,0,0,0,0,0,0,0,0,0,-0.0003,-0.0002,0.0074,0.0074,0.0074,0.0094,0.0095,0.0095,0.0046,0.0044,0.0042,0.004,0.0065,0.0068,0.0071,0,0,0,0,0,0,0,0,0,0,0,0,0,0.0025,-0.0001,0.0074,0.0052,0.005,0.0094,0.0095,0.0095,0.0046,0.0044,0.0041,0.0039,0.0065,0.0068,0.0071,0.0138,0,0,0.0081,0.0082,0,0,0,0,0,0,0,0,0.0024,0.0028,0.0055,0.0053,0.0052,0.0065,0.0077,0.011,0.0047,0.0048,0.0041,0.0038,0.0068,0.0071,0.008,0.014,0.0141,0.0081,0.0083,0.0084,0.0085,0,0,0,0,0,0,0,0.0022,0.0027,0.0082,0.0055,0.0053,0.0043,0.0044,0.0083,0.0071,0.0047,0.0044,0.0047,0.0067,0.0077,0.008,0.0141,0.0081,0.0084,0.0086,0.0087,0.026,0.0263,0,0,0,0,0,0,0.0022,0.0026,0.0081,0.0083,0.0031,0.0046,0.0048,0.0063,0.007,0.0069,0.0049,0.0044,0.0073,0.0076,0.0081,0.0163,0.0084,0.0087,0.0089,0.0258,0.0261,0.0264,0,0,0,0,0,0,0.002,0.0027,0.008,0.0053,0.0059,0.005,0.0068,0.0065,0.0075,0.0071,0.0069,0.0061,0.0071,0.0076,0.0125,0.0163,0.0089,0.0092,0.0255,0.0259,0.0262,0.0325,0,0,0,0,0,0,0.0018,0.0027,0.0051,0.0054,0.0061,0.0123,0.007,0.0067,0.008,0.0075,0.0083,0.0082,0.0069,0.012,0.0128,0.0166,0.0094,0.0251,0.0256,0.0261,0.032,0.0331,0.0341,0,0,0,0,0,0.0016,0.0068,0.0053,0.006,0.0091,0.0125,0.0129,0.0113,0.0083,0.0109,0.0107,0.0081,0.0157,0.0126,0.0134,0.0173,0.0249,0.0255,0.0261,0.0315,0.0329,0.034,0,0,0,0,0,0,0.0071,0.0068,0.0051,0.0105,0.0116,0.0116,0.0148,0.0127,0.0147,0.0141,0.0121,0.0123,0.0177,0.0179,0.0145,0.0241,0.0198,0.0206,0.0237,0.025,0.026,0.0259,0.0097,0,0,0,0,0,0.009,0.0116,0.0113,0.0162,0.0168,0.0157,0.0171,0.0158,0.0168,0.0173,0.0174,0.0187,0.0213,0.0231,0.0255,0.032,0.0322,0.0351,0.0361,0.037,0.0378,0.0415,0.0428,0.0284,0.0284,0.0283,0,0,0.0129,0.013,0.0148,0.0173,0.0179,0.0209,0.0161,0.0194,0.0217,0.0178,0.0224,0.0226,0.0239,0.0296,0.0322,0.03,0.0418,0.0378,0.0384,0.0388,0.0422,0.0436,0.0448,0.0288,0.0287,0.0286,0,0,0.0215,0.0218,0.026,0.0267,0.0277,0.027,0.028,0.0284,0.0284,0.033,0.0302,0.0329,0.0375,0.0386,0.0398,0.049,0.0469,0.0499,0.0553,0.059,0.0601,0.0611,0.0647,0.066,0.0506,0.0506,0.0506,0,0.0263,0.0305,0.0285,0.032,0.0333,0.0298,0.0342,0.0351,0.0369,0.038,0.0355,0.0413,0.0419,0.048,0.0503,0.0512,0.0526,0.0498,0.0601,0.0611,0.062,0.0654,0.0667,0.051,0.051,0.0509,0.0509,0,0.0365,0.0395,0.0428,0.0445,0.0462,0.0501,0.0489,0.0508,0.0494,0.049,0.0539,0.0545,0.0571,0.0584,0.057,0.0644,0.0631,0.0604,0.0561,0.0638,0.067,0.0682,0.0515,0.0514,0.0513,0.0512,0,0,0.0487,0.0493,0.0506,0.0515,0.0523,0.0547,0.0587,0.0611,0.0629,0.0643,0.0678,0.0718,0.0694,0.0707,0.0694,0.0726,0.0802,0.0696,0.0696,0.0718,0.0887,0.0909,0.0924,0.0787,0.079,0.0792,0.0887,0,0.0575,0.064,0.0624,0.069,0.072,0.0687,0.0722,0.0733,0.073,0.0756,0.0754,0.0784,0.0749,0.0757,0.0787,0.0787,0.0837,0.0779,0.0822,0.0824,0.0822,0.094,0.0963,0.1053,0.0899,0.0901,0.0903,0,0.0685,0.0703,0.0772,0.0778,0.079,0.0821,0.0844,0.0868,0.088,0.0876,0.0892,0.0874,0.0915,0.0871,0.0929,0.0891,0.0907,0.091,0.0913,0.0918,0.0869,0.0951,0.1081,0.1095,0.0921,0.092,0.0919,0,0.0771,0.0812,0.086,0.0868,0.0875,0.0898,0.0903,0.0912,0.0929,0.0949,0.096,0.0985,0.0999,0.102,0.101,0.0978,0.1071,0.1025,0.1072,0.1073,0.1095,0.1094,0.1231,0.1101,0.1101,0.1101,0.1101,0,0.0872,0.0917,0.0899,0.0928,0.0978,0.0959,0.1009,0.101,0.1019,0.105,0.1023,0.1053,0.1037,0.1066,0.1059,0.111,0.1116,0.1116,0.1114,0.112,0.1121,0.1132,0.1127,0.1105,0.1104,0.1103,0.1102,0,0.0977,0.0966,0.1016,0.1019,0.1021,0.1058,0.1062,0.109,0.1086,0.1126,0.1134,0.1128,0.1162,0.1153,0.1189,0.1185,0.125,0.1239,0.1246,0.1244,0.1292,0.1289,0.1444,0.1465,0.1319,0.132,0.1322,0,0.1043,0.1077,0.1083,0.1101,0.1107,0.1137,0.1153,0.1137,0.1156,0.1173,0.1201,0.1231,0.1255,0.131,0.1311,0.134,0.1331,0.1383,0.1335,0.134,0.1335,0.1334,0.1338,0.1393,0.1395,0.1396,0.1397,0,0.1163,0.1156,0.118,0.1203,0.1224,0.1241,0.1257,0.1273,0.1258,0.1281,0.1314,0.1333,0.137,0.1402,0.1429,0.1436,0.1416,0.1412,0.1425,0.1432,0.1436,0.1438,0.1275,0.1409,0.1408,0.1407,0.1406,0.1406,0.1252,0.1281,0.1291,0.1319,0.1329,0.1344,0.1372,0.1371,0.1398,0.1426,0.1415,0.1454,0.1468,0.1501,0.1511,0.1543,0.1524,0.1542,0.1547,0.1552,0.1559,0.1429,0.1548,0.1548,0.1547,0.1547,0.1547,0,0.1373,0.1377,0.1403,0.1426,0.1449,0.1425,0.1441,0.1463,0.1497,0.1511,0.1535,0.1575,0.1606,0.1609,0.1639,0.1665,0.1656,0.1673,0.1673,0.1675,0.1574,0.1561,0.168,0.168,0.168,0.168,0.168,0.168,0.1438,0.1487,0.1482,0.1536,0.154,0.1577,0.1589,0.1604,0.1615,0.166,0.1686,0.1687,0.1697,0.1728,0.1757,0.1757,0.1771,0.1792,0.179,0.1695,0.1682,0.1669,0.1657,0.1795,0.1795,0.1889,0.189,0.189]},{"header":{"parameterUnit":"m.s-1","parameterCategory":1,"la1":30.2991,"la2":30.254,"lo1":-89.0895,"lo2":-89.0444,"dy":0.0017,"dx":0.0017,"nx":28,"ny":28,"refTime":"2025-08-16T09:00:00:Z","depth":0,"parameterNumber":3,"parameterNumberName":"V-component_of_WINDS"},"data":[0,0,0,0,0,0,0,0,0,0,0,0,0,0,0,0,0,0,0,0,0,0,0,0,0,0,0,0,0,0,0,0,0,0,0,0,0,0,0,0,0,0,0,0,0,0,0,0,0,0,0,0,0,0,0,0,0,0,-1.0369,-1.0368,0,-1.0288,-1.0287,-1.0286,-1.0256,-1.0256,-1.0256,-1.0257,-1.0177,-1.0175,-1.0173,0,0,0,0,0,0,0,0,0,0,0,0,0,-1.05,-1.0498,-1.0369,-1.0368,-1.0367,-1.0288,-1.0287,-1.0286,-1.0256,-1.0256,-1.0256,-1.0257,-1.0178,-1.0175,-1.0172,0,0,0,0,0,0,0,0,0,0,0,0,0,-1.0434,-1.0497,-1.0369,-1.0342,-1.0339,-1.0288,-1.0287,-1.0286,-1.0256,-1.0256,-1.0256,-1.0257,-1.0179,-1.0175,-1.0172,-1.0143,0,0,-1.0161,-1.016,0,0,0,0,0,0,0,0,-1.0437,-1.0429,-1.0347,-1.0344,-1.034,-1.0282,-1.0304,-1.0238,-1.0256,-1.0287,-1.0257,-1.0257,-1.0212,-1.0206,-1.019,-1.0139,-1.0136,-1.0161,-1.0159,-1.0157,-1.0156,0,0,0,0,0,0,0,-1.0442,-1.0432,-1.0337,-1.0346,-1.0342,-1.0335,-1.0326,-1.0291,-1.0249,-1.0285,-1.0282,-1.0273,-1.021,-1.0193,-1.0188,-1.0135,-1.0161,-1.0158,-1.0156,-1.0154,-1.0056,-1.0056,0,0,0,0,0,0,-1.0451,-1.0436,-1.034,-1.0335,-1.0391,-1.0333,-1.0322,-1.0301,-1.0249,-1.0242,-1.0273,-1.0272,-1.0199,-1.0192,-1.0185,-1.0147,-1.0157,-1.0154,-1.0152,-1.0057,-1.0056,-1.0055,0,0,0,0,0,0,-1.0454,-1.0442,-1.0343,-1.0385,-1.0371,-1.033,-1.0306,-1.0299,-1.0282,-1.024,-1.0233,-1.0263,-1.0199,-1.019,-1.0153,-1.0144,-1.0152,-1.0149,-1.0057,-1.0056,-1.0056,-1.0071,0,0,0,0,0,0,-1.0457,-1.0444,-1.0431,-1.0385,-1.0369,-1.0311,-1.0305,-1.0297,-1.0275,-1.0274,-1.0229,-1.0222,-1.0199,-1.0159,-1.015,-1.0139,-1.0147,-1.0058,-1.0057,-1.0056,-1.0071,-1.0071,-1.0071,0,0,0,0,0,-1.0462,-1.044,-1.0431,-1.0419,-1.0353,-1.0311,-1.0302,-1.0275,-1.0275,-1.0263,-1.0236,-1.0223,-1.0147,-1.0155,-1.0145,-1.0133,-1.0058,-1.0057,-1.0056,-1.0071,-1.0071,-1.0071,0,0,0,0,0,0,-1.0488,-1.0433,-1.0423,-1.0384,-1.0352,-1.0306,-1.0289,-1.0276,-1.0244,-1.0244,-1.0213,-1.0203,-1.0169,-1.0148,-1.0158,-1.0102,-1.0102,-1.0099,-1.0117,-1.0116,-1.0116,-1.0121,-1.0144,0,0,0,0,0,-1.0489,-1.0458,-1.0413,-1.0383,-1.0367,-1.0331,-1.0312,-1.0294,-1.026,-1.0247,-1.0217,-1.0186,-1.0154,-1.0135,-1.0104,-1.0069,-1.0058,-1.0056,-1.0055,-1.0055,-1.0053,-1.0032,-1.003,-1.0052,-1.0052,-1.0052,0,0,-1.049,-1.0457,-1.044,-1.0387,-1.036,-1.033,-1.032,-1.0289,-1.0266,-1.0242,-1.0205,-1.0183,-1.0146,-1.011,-1.0092,-1.0091,-1.0044,-1.0054,-1.0054,-1.0051,-1.0031,-1.0029,-1.0027,-1.0051,-1.0051,-1.0051,0,0,-1.0478,-1.045,-1.0421,-1.0395,-1.0354,-1.033,-1.0323,-1.0279,-1.0263,-1.0225,-1.0206,-1.018,-1.0127,-1.0101,-1.0081,-1.0059,-1.0046,-1.005,-1.0048,-1.0028,-1.0027,-1.0025,-1.0016,-1.0014,-1.0048,-1.0048,-1.0048,0,-1.0485,-1.0438,-1.0409,-1.0378,-1.0355,-1.0332,-1.0303,-1.0279,-1.0231,-1.0216,-1.0215,-1.0148,-1.0121,-1.0078,-1.0073,-1.0058,-1.005,-1.0054,-1.0029,-1.0027,-1.0025,-1.0016,-1.0013,-1.0048,-1.0048,-1.0048,-1.0048,0,-1.0449,-1.0416,-1.0399,-1.0351,-1.0327,-1.0298,-1.0265,-1.0244,-1.0228,-1.0205,-1.0167,-1.0135,-1.0096,-1.0085,-1.007,-1.004,-1.0041,-1.0035,-1.0033,-1.0024,-1.0015,-1.0012,-1.0049,-1.0049,-1.0049,-1.0049,0,0,-1.0449,-1.0386,-1.0379,-1.0357,-1.0311,-1.0285,-1.0256,-1.0217,-1.0199,-1.0167,-1.0141,-1.0097,-1.0091,-1.0069,-1.0051,-1.0034,-1.0017,-1.003,-1.0029,-1.0028,-0.9982,-0.9985,-0.9982,-1.0009,-1.0009,-1.0008,-0.9984,0,-1.0429,-1.0372,-1.0346,-1.0301,-1.0271,-1.0248,-1.0222,-1.0191,-1.0169,-1.0141,-1.0117,-1.0085,-1.0081,-1.0067,-1.0049,-1.0023,-1.0008,-1.0025,-0.9985,-0.9984,-0.9993,-0.9977,-0.9981,-0.996,-0.9981,-0.998,-0.998,0,-1.0398,-1.0364,-1.0317,-1.0273,-1.0259,-1.0236,-1.0198,-1.0172,-1.0137,-1.0122,-1.0096,-1.0079,-1.0047,-1.0049,-1.0005,-1.0018,-1.0,-0.9985,-0.9984,-0.9978,-0.998,-0.997,-0.9952,-0.9949,-0.9975,-0.9975,-0.9975,0,-1.0401,-1.0345,-1.0308,-1.029,-1.0239,-1.0223,-1.0201,-1.0166,-1.0145,-1.0113,-1.0098,-1.0064,-1.0044,-1.0018,-0.9992,-0.9996,-0.9951,-0.9951,-0.9937,-0.9938,-0.9927,-0.9928,-0.9906,-0.9919,-0.9919,-0.9919,-0.9919,0,-1.0381,-1.0353,-1.0309,-1.0286,-1.0254,-1.0224,-1.0193,-1.017,-1.0139,-1.0112,-1.0092,-1.0068,-1.0035,-1.0007,-0.9987,-0.9953,-0.9946,-0.9933,-0.9927,-0.9933,-0.9935,-0.992,-0.992,-0.9918,-0.9918,-0.9918,-0.9918,0,-1.0379,-1.0348,-1.0307,-1.0262,-1.025,-1.0227,-1.0189,-1.0167,-1.0144,-1.011,-1.0101,-1.0065,-1.0031,-1.0003,-0.9959,-0.9945,-0.9909,-0.9904,-0.992,-0.9917,-0.9905,-0.9906,-0.9871,-0.9865,-0.9884,-0.9884,-0.9884,0,-1.0367,-1.0344,-1.0296,-1.0276,-1.0254,-1.0222,-1.02,-1.017,-1.0148,-1.0106,-1.0089,-1.0053,-1.0023,-0.9969,-0.994,-0.9906,-0.9899,-0.9889,-0.9894,-0.99,-0.9897,-0.9898,-0.9895,-0.9888,-0.9888,-0.9888,-0.9888,0,-1.0349,-1.0335,-1.0302,-1.0265,-1.0238,-1.0207,-1.0176,-1.0162,-1.0127,-1.0103,-1.0067,-1.0043,-0.9997,-0.9962,-0.9925,-0.9904,-0.989,-0.9887,-0.9882,-0.9887,-0.9897,-0.989,-0.9918,-0.9888,-0.9888,-0.9888,-0.9888,-0.9888,-1.034,-1.0318,-1.0281,-1.0246,-1.0219,-1.019,-1.0167,-1.0141,-1.011,-1.0069,-1.0054,-1.0017,-0.9983,-0.9932,-0.991,-0.9882,-0.988,-0.9873,-0.9871,-0.9869,-0.9869,-0.9903,-0.9875,-0.9875,-0.9875,-0.9875,-0.9875,0,-1.032,-1.0295,-1.0262,-1.0219,-1.0191,-1.018,-1.0146,-1.0123,-1.009,-1.0059,-1.0029,-0.9988,-0.9954,-0.9922,-0.9886,-0.9869,-0.9862,-0.9861,-0.9861,-0.9856,-0.9873,-0.988,-0.9867,-0.9867,-0.9867,-0.9867,-0.9867,-0.9867,-1.0306,-1.0268,-1.025,-1.0199,-1.0174,-1.0137,-1.0118,-1.0091,-1.0066,-1.002,-0.9991,-0.997,-0.9939,-0.9901,-0.9869,-0.986,-0.9848,-0.9848,-0.9838,-0.9854,-0.9855,-0.9856,-0.9863,-0.9845,-0.9845,-0.9822,-0.9822,-0.9822]}]]